Home > Weather > Boca Raton > Past weeks

Flag for USA Past Weather in Boca Raton, Florida, USA — Yesterday and Last 2 Weeks

Now
84 °F

Clear.


Feels Like: 94 °F
Forecast: 81 / 91 °F
Wind: No wind

Location: Pompano Beach - Pompano Beach Airpark

Current Time: Jul 29, 2016 at 3:53:06 AM

Latest Report: Jul 29, 2016 at 2:53 AM


Visibility: 10 mi

Pressure: 30.04 "Hg

Humidity: 80%

Dew Point: 77 °F

Location of Boca RatonLocation

Past Weather in Boca Raton — Graph

°F

Boca Raton Temperature Yesterday

Maximum temperature yesterday: 91 °F (at 3:53 PM)
Minimum temperature yesterday: 83 °F (at 1:53 AM)
Average temperature yesterday: 86 °F

High & Low Weather Summary for the Past Weeks

 TemperatureHumidityPressure
High92 °F (Jul 16, 12:53 PM)91% (Jul 23, 6:53 AM)30.18 "Hg (Jul 23, 6:53 AM)
Low76 °F (Jul 23, 2:53 AM)54% (Jul 19, 2:53 PM)30.00 "Hg (Jul 23, 4:53 PM)
Average85 °F71%30.08 "Hg
* Reported Jul 14 2:53 AM — Jul 29 2:53 AM, Boca Raton, Weather by CustomWeather, © 2016

Note: Actual official high and low records may vary slightly from our data, if they occured in-between our weather recording intervals... More about our weather records

Advertising

Boca Raton Weather History for the Previous 24 Hours

Scroll right to see more
 ConditionsComfort  
Time TempWeatherWind HumidityBarometerVisibility
2:53 AM
Fri, Jul 29
84 °FClear.No wind80%30.04 "Hg10 mi
1:53 AM84 °FClear.3 mph80%30.04 "Hg10 mi
12:53 AM85 °FClear.5 mph75%30.04 "Hg10 mi
11:53 PM
Thu, Jul 28
85 °FClear.7 mph75%30.05 "Hg10 mi
10:53 PM85 °FPassing clouds.10 mph77%30.06 "Hg10 mi
9:53 PM85 °FClear.12 mph75%30.04 "Hg10 mi
8:53 PM85 °FPassing clouds.13 mph80%30.03 "Hg10 mi
7:53 PM86 °FSunny.10 mph75%30.02 "Hg10 mi
6:53 PM87 °FSunny.10 mph72%30.02 "Hg10 mi
5:53 PM90 °FSunny.13 mph66%30.02 "Hg10 mi
4:53 PM90 °FScattered clouds.13 mph66%30.02 "Hg10 mi
3:53 PM91 °FScattered clouds.12 mph64%30.03 "Hg10 mi
2:53 PM90 °FScattered clouds.14 mph63%30.04 "Hg10 mi
1:53 PM90 °FScattered clouds.12 mph63%30.06 "Hg10 mi
12:53 PM90 °FScattered clouds.13 mph61%30.08 "Hg10 mi
11:53 AM90 °FScattered clouds.10 mph61%30.08 "Hg10 mi
10:53 AM89 °FPassing clouds.10 mph63%30.09 "Hg10 mi
9:53 AM87 °FPassing clouds.10 mph67%30.09 "Hg10 mi
8:53 AM86 °FPassing clouds.9 mph67%30.08 "Hg10 mi
7:53 AM85 °FPassing clouds.10 mph72%30.06 "Hg10 mi
6:53 AM83 °FPassing clouds.9 mph79%30.05 "Hg10 mi
6:01 AM84 °FPartly cloudy.8 mph74%30.04 "Hg10 mi
5:53 AM84 °FPassing clouds.9 mph74%30.04 "Hg10 mi
4:53 AM84 °FPassing clouds.3 mph77%30.03 "Hg10 mi
3:53 AM84 °FClear.6 mph74%30.03 "Hg10 mi
Weather by CustomWeather, © 2016

See weather overviewHow to use our weather pages